This is the latest recevied weather packets stored in our database for station/object KE0SWK-13. If no packets are shown the sender has not sent any weather packets the latest 10 day(s).
| Time | Temp. | Humidity | Pressure | Rain* | Wind** | Luminosity | Snow |
|---|---|---|---|---|---|---|---|
| 1788388724 | 37.78° C | 35% | 0 hPa | 0 mm | - | - | - |
| 1788387818 | -17.78° C | 100% | 0 hPa | 0 mm | - | - | - |
| 1788385098 | 40° C | 31% | 0 hPa | 0 mm | - | - | - |
| 1788384203 | -17.78° C | 100% | 0 hPa | 0 mm | - | - | - |
| 1788383284 | 39.44° C | 32% | 0 hPa | 0 mm | - | - | - |
| 1788381474 | 40° C | 33% | 0 hPa | 0 mm | - | - | - |
| 1788377845 | -17.78° C | 100% | 0 hPa | 0 mm | - | - | - |
| 1788374213 | -17.78° C | 100% | 0 hPa | 0 mm | - | - | - |
| 1788371499 | 40° C | 36% | 0 hPa | 0 mm | - | - | - |
| 1788370593 | -17.78° C | 100% | 0 hPa | 0 mm | - | - | - |
| 1788369686 | 39.44° C | 37% | 0 hPa | 0 mm | - | - | - |
| 1788368779 | -17.78° C | 100% | 0 hPa | 0 mm | - | - | - |
| 1788367873 | 37.78° C | 40% | 0 hPa | 0 mm | - | - | - |
| 1788366966 | -17.78° C | 100% | 0 hPa | 0 mm | - | - | - |
| 1788364248 | -17.78° C | 100% | 0 hPa | 0 mm | - | - | - |
| 1788363341 | -17.78° C | 100% | 0 hPa | 0 mm | - | - | - |
| 1788362434 | -17.78° C | 100% | 0 hPa | 0 mm | - | - | - |
| 1788357896 | -17.78° C | 100% | 0 hPa | 0 mm | - | - | - |
| 1788355182 | 28.89° C | 58% | 0 hPa | 0 mm | - | - | - |
| 1788354276 | -17.78° C | 100% | 0 hPa | 0 mm | - | - | - |
| 1788351555 | 24.44° C | 68% | 0 hPa | 0 mm | - | - | - |
| 1788349743 | 24.44° C | 68% | 0 hPa | 0 mm | - | - | - |
| 1788346116 | -17.78° C | 100% | 0 hPa | 0 mm | - | - | - |
| 1788343394 | -17.78° C | 100% | 0 hPa | 0 mm | - | - | - |
| 1788335238 | 26.67° C | 59% | 0 hPa | 0 mm | - | - | - |
* Rain latest hour (hover to see other rain measurements)
** Current wind speed in m/s (hover to see current wind gust speed)